,

(GMT )
Birmingham

Weather History for EGBB - January, 2013

Change the Weather History Date:

Tuesday, January 15, 2013

  Actual Average Record
Temperature  
Mean Temperature 30 °F -  
Max Temperature 37 °F 45 °F 51 °F (2011)
Min Temperature 23 °F 34 °F 21 °F (1997)
Degree Days  
Heating Degree Days 35    
Moisture  
Dew Point 28 °F    
Average Humidity 91    
Maximum Humidity 100    
Minimum Humidity 75    
Precipitation  
Precipitation 0.00 in - - ()
Sea Level Pressure  
Sea Level Pressure 29.82 in    
Wind  
Wind Speed 7 mph ()    
Max Wind Speed 16 mph    
Max Gust Speed -    
Visibility 5.5 miles    
Events Fog    
Averages and records for this station are not official NWS values.
T = Trace of Precipitation, MM = Missing Value Source: Averaged Metar Reports

Daily Weather History Graph

Daily Weather History Graph

Search for Another Location

Airport or City:

Trip Planner

Search our weather history database for the weather conditions in past years. The results will help you decide how hot, cold, wet, or windy it might be!

Date:

Astronomy

Jan. 15, 2013 Rise Set
Actual Time 8:09 AM GMT 4:23 PM GMT
Civil Twilight 7:30 AM GMT 5:02 PM GMT
Nautical Twilight 6:47 AM GMT 5:45 PM GMT
Astronomical Twilight 6:06 AM GMT 6:26 PM GMT
Moon 9:29 AM GMT (1/15) 9:40 PM GMT (1/15)
Length of Visible Light 9h 32m
Length of Day
8h 13m
Waxing Crescent, 17% of the Moon is Illuminated
Jan 15
Waxing Crescent
Jan 18
First Quarter
Jan 27
Full
Feb 3
Last Quarter
Feb 10
New

Hourly Weather History & Observations

Time (GMT) Temp. Windchill Dew Point Humidity Pressure Visibility Wind Dir Wind Speed Gust Speed Precip Events Conditions
12:20 AM 33.8 °F 24.8 °F 30.2 °F 87% 29.68 in 6.2 mi NW 12.7 mph - N/A   Overcast
12:50 AM 33.8 °F 23.5 °F 30.2 °F 87% 29.68 in 6.2 mi NW 16.1 mph - N/A   Overcast
1:20 AM 33.8 °F 23.9 °F 30.2 °F 87% 29.68 in 6.2 mi NW 15.0 mph - N/A   Mostly Cloudy
1:50 AM 33.8 °F 24.3 °F 30.2 °F 87% 29.71 in 6.2 mi NNW 13.8 mph - N/A   Mostly Cloudy
2:20 AM 33.8 °F 25.8 °F 30.2 °F 87% 29.74 in 6.2 mi NNW 10.4 mph - N/A   Mostly Cloudy
2:50 AM 33.8 °F 26.4 °F 30.2 °F 87% 29.74 in 6.2 mi North 9.2 mph - N/A   Mostly Cloudy
3:20 AM 33.8 °F 25.3 °F 30.2 °F 87% 29.74 in 6.2 mi NNW 11.5 mph - N/A   Mostly Cloudy
3:50 AM 32.0 °F 23.6 °F 30.2 °F 93% 29.77 in 6.2 mi NNW 10.4 mph - N/A   Mostly Cloudy
4:20 AM 30.2 °F 22.6 °F 28.4 °F 93% 29.77 in 6.2 mi NNW 8.1 mph - N/A   Partly Cloudy
4:50 AM 30.2 °F 21.9 °F 28.4 °F 93% 29.77 in 6.2 mi NNW 9.2 mph - N/A   Partly Cloudy
5:20 AM 28.4 °F 20.4 °F 26.6 °F 93% 29.77 in - NNW 8.1 mph - N/A   Clear
5:50 AM 28.4 °F 23.3 °F 26.6 °F 93% 29.77 in - NW 4.6 mph - N/A   Clear
6:20 AM 26.6 °F 22.6 °F 24.8 °F 93% 29.80 in - NW 3.5 mph - N/A   Clear
6:50 AM 26.6 °F - 26.6 °F 100% 29.80 in 5.0 mi NW 2.3 mph - N/A   Unknown
7:20 AM 26.6 °F - 26.6 °F 100% 29.80 in 5.6 mi WNW 2.3 mph - N/A   Unknown
7:50 AM 26.6 °F 22.6 °F 26.6 °F 100% 29.83 in 5.6 mi WNW 3.5 mph - N/A   Unknown
8:20 AM 26.6 °F 21.2 °F 24.8 °F 93% 29.83 in 5.6 mi WNW 4.6 mph - N/A   Unknown
8:50 AM 28.4 °F 22.2 °F 28.4 °F 100% 29.83 in - NW 5.8 mph - N/A   Clear
9:20 AM 30.2 °F 25.4 °F 28.4 °F 93% 29.86 in 5.6 mi WNW 4.6 mph - N/A   Unknown
9:50 AM 32.0 °F 28.7 °F 30.2 °F 93% 29.86 in 5.6 mi NW 3.5 mph - N/A   Unknown
10:20 AM 32.0 °F 28.7 °F 30.2 °F 93% 29.86 in 5.6 mi WNW 3.5 mph - N/A   Unknown
10:50 AM 33.8 °F 29.6 °F 30.2 °F 87% 29.86 in - NW 4.6 mph - N/A   Clear
11:20 AM 35.6 °F 30.7 °F 30.2 °F 81% 29.86 in - NNW 5.8 mph - N/A   Clear
11:50 AM 35.6 °F 30.7 °F 32.0 °F 87% 29.86 in - WNW 5.8 mph - N/A   Clear
12:20 PM 37.4 °F 32.8 °F 30.2 °F 75% 29.86 in - NW 5.8 mph - N/A   Clear
12:50 PM 37.4 °F 33.8 °F 30.2 °F 75% 29.86 in 6.2 mi NW 4.6 mph - N/A   Partly Cloudy
1:20 PM 37.4 °F 32.8 °F 32.0 °F 81% 29.83 in 6.2 mi WNW 5.8 mph - N/A   Partly Cloudy
1:50 PM 37.4 °F 32.1 °F 32.0 °F 81% 29.83 in 6.2 mi NW 6.9 mph - N/A   Scattered Clouds
2:20 PM 37.4 °F 31.4 °F 32.0 °F 81% 29.83 in 6.2 mi NNE 8.1 mph - N/A   Scattered Clouds
2:50 PM 35.6 °F 31.7 °F 30.2 °F 81% 29.83 in 6.2 mi NNE 4.6 mph - N/A   Partly Cloudy
3:20 PM 33.8 °F 28.6 °F 30.2 °F 87% 29.86 in 6.2 mi NNE 5.8 mph - N/A   Partly Cloudy
3:50 PM 32.0 °F - 28.4 °F 87% 29.86 in 6.2 mi Variable 2.3 mph - N/A   Scattered Clouds
4:20 PM 32.0 °F - 28.4 °F 87% 29.86 in 6.2 mi Calm Calm - N/A   Partly Cloudy
4:50 PM 32.0 °F - 28.4 °F 87% 29.86 in 6.2 mi Variable 2.3 mph - N/A   Partly Cloudy
5:20 PM 30.2 °F - 28.4 °F 93% 29.86 in 6.2 mi West 2.3 mph - N/A   Mostly Cloudy
5:50 PM 30.2 °F - 28.4 °F 93% 29.86 in 6.2 mi Variable 2.3 mph - N/A   Mostly Cloudy
6:20 PM 30.2 °F - 28.4 °F 93% 29.86 in 6.2 mi Variable 2.3 mph - N/A   Scattered Clouds
6:50 PM 28.4 °F - 26.6 °F 93% 29.86 in 6.2 mi NNE 2.3 mph - N/A   Partly Cloudy
7:20 PM 28.4 °F - 28.4 °F 100% 29.86 in 3.7 mi Calm Calm - N/A   Partly Cloudy
7:50 PM 28.4 °F - 28.4 °F 100% 29.86 in 3.7 mi NE 2.3 mph - N/A   Unknown
8:20 PM 28.4 °F - 26.6 °F 93% 29.86 in 3.7 mi Calm Calm - N/A   Unknown
8:50 PM 26.6 °F - 24.8 °F 93% 29.86 in 3.7 mi Calm Calm - N/A   Unknown
9:20 PM 24.8 °F - 24.8 °F 100% 29.86 in 3.1 mi Calm Calm - N/A   Mist
9:50 PM 24.8 °F - 24.8 °F 100% 29.86 in 4.3 mi Calm Calm - N/A Fog Fog
10:20 PM 24.8 °F - 24.8 °F 100% 29.86 in 4.3 mi NNE 2.3 mph - N/A Fog Fog
10:50 PM 24.8 °F - 24.8 °F 100% 29.86 in 4.3 mi Calm Calm - N/A Fog Fog
11:20 PM 23.0 °F - 23.0 °F 100% 29.86 in 3.7 mi Calm Calm - N/A Fog Fog
11:50 PM 23.0 °F - 23.0 °F 100% 29.86 in 3.1 mi Calm Calm - N/A Fog Fog